Weather History for Hamilton Island, QU

Change the Weather History Date:

Saturday, May 4, 2013

  Actual Average Record
Temperature  
Mean Temperature 74 °F -  
Max Temperature 78 °F - - ()
Min Temperature 71 °F - - ()
Cooling Degree Days 10    
Growing Degree Days 24 (Base 50)    
Moisture  
Dew Point 67 °F    
Average Humidity 74    
Maximum Humidity 88    
Minimum Humidity 65    
Precipitation  
Precipitation 0.00 in - - ()
Sea Level Pressure  
Sea Level Pressure 30.09 in    
Wind  
Wind Speed 21 mph ()    
Max Wind Speed 26 mph    
Max Gust Speed -    
T = Trace of Precipitation, MM = Missing Value Source: Averaged Metar Reports

Daily Weather History Graph

Daily Weather History Graph

Search for Another Location

Airport:

Trip Planner

Search our weather history database for the weather conditions in past years. The results will help you decide how hot, cold, wet, or windy it might be!

Date:

Astronomy

May. 04, 2013 Rise Set
Actual Time 6:21 AM AEST 5:40 PM AEST
Civil Twilight 5:58 AM AEST 6:03 PM AEST
Nautical Twilight 5:32 AM AEST 6:29 PM AEST
Astronomical Twilight 5:06 AM AEST 6:55 PM AEST
Moon 1:00 AM AEST (5/4) 1:42 PM AEST (5/4)
Length of Visible Light 12h 04m
Length of Day
11h 18m
Waning Crescent, 33% of the Moon is Illuminated
May 4
Waning Crescent
May 10
New
May 18
First Quarter
May 25
Full
Jun 1
Last Quarter

Hourly Weather History & Observations

Time (AEST) Temp. Dew Point Humidity Pressure Visibility Wind Dir Wind Speed Gust Speed Precip Events Conditions
12:00 AM 75 °F 68 °F 74% 30.11 in - ESE 24.2 mph - -  
12:00 AM 75.2 °F 68.0 °F 78% 30.09 in - ESE 24.2 mph - N/A   Unknown
12:30 AM 75.2 °F 69.8 °F 83% 30.09 in - SE 24.2 mph - N/A   Unknown
1:00 AM 75.2 °F 69.8 °F 83% 30.09 in - SE 20.7 mph - N/A   Unknown
1:30 AM 75.2 °F 68.0 °F 78% 30.09 in - ESE 25.3 mph - N/A   Unknown
2:00 AM 75.2 °F 69.8 °F 83% 30.09 in - ESE 21.9 mph - N/A   Unknown
2:30 AM 73.4 °F 68.0 °F 83% 30.06 in - ESE 19.6 mph - N/A   Unknown
3:00 AM 74 °F 69 °F 79% 30.08 in - ESE 19.6 mph - -  
3:00 AM 75.2 °F 68.0 °F 78% 30.06 in - ESE 19.6 mph - N/A   Unknown
3:30 AM 75.2 °F 68.0 °F 78% 30.06 in - SE 19.6 mph - N/A   Unknown
4:00 AM 73.4 °F 69.8 °F 88% 30.06 in - SE 21.9 mph - N/A   Unknown
4:30 AM 75.2 °F 69.8 °F 83% 30.06 in - SE 24.2 mph - N/A   Unknown
5:00 AM 75.2 °F 69.8 °F 83% 30.06 in - SE 25.3 mph - N/A   Unknown
5:30 AM 73.4 °F 68.0 °F 83% 30.06 in - SE 26.5 mph - N/A   Unknown
6:00 AM 74 °F 67 °F 73% 30.10 in - SE 24.2 mph - -  
6:00 AM 73.4 °F 68.0 °F 83% 30.09 in - SE 24.2 mph - N/A   Unknown
6:30 AM 75.2 °F 68.0 °F 78% 30.12 in - SE 25.3 mph - N/A   Unknown
7:00 AM 75.2 °F 68.0 °F 78% 30.12 in - SE 26.5 mph - N/A   Unknown
7:30 AM 75.2 °F 68.0 °F 78% 30.12 in - SE 26.5 mph - N/A   Unknown
8:00 AM 75.2 °F 66.2 °F 73% 30.12 in - ESE 26.5 mph - N/A   Unknown
8:30 AM 77.0 °F 66.2 °F 69% 30.12 in - SE 26.5 mph - N/A   Unknown
9:00 AM 77 °F 68 °F 66% 30.15 in - SE 24.2 mph - -  
9:00 AM 77.0 °F 68.0 °F 74% 30.15 in - SE 24.2 mph - N/A   Unknown
9:30 AM 77.0 °F 66.2 °F 69% 30.15 in - SE 25.3 mph - N/A   Unknown
10:00 AM 78.8 °F 68.0 °F 69% 30.15 in - SE 25.3 mph - N/A   Unknown
10:30 AM 78.8 °F 68.0 °F 69% 30.15 in - SE 24.2 mph - N/A   Unknown
11:00 AM 77.0 °F 68.0 °F 74% 30.12 in - SE 21.9 mph - N/A   Unknown
11:30 AM 78.8 °F 71.6 °F 78% 30.12 in - SE 21.9 mph - N/A   Unknown
12:00 PM 78 °F 69 °F 67% 30.11 in - SE 26.5 mph - -  
12:00 PM 78.8 °F 69.8 °F 74% 30.09 in - SE 26.5 mph - N/A   Unknown
12:30 PM 77.0 °F 66.2 °F 69% 30.09 in - SE 25.3 mph - N/A   Unknown
1:00 PM 77.0 °F 68.0 °F 74% 30.06 in - SE 26.5 mph - N/A   Unknown
1:30 PM 77.0 °F 66.2 °F 69% 30.06 in - SE 21.9 mph - N/A   Unknown
2:00 PM 77.0 °F 66.2 °F 69% 30.06 in - SE 23.0 mph - N/A   Unknown
2:30 PM 77.0 °F 64.4 °F 65% 30.04 in - SE 23.0 mph - N/A   Unknown
3:00 PM 75 °F 67 °F 71% 30.05 in - SE 23.0 mph - -  
3:00 PM 75.2 °F 68.0 °F 78% 30.04 in - SE 23.0 mph - N/A   Unknown
3:30 PM 75.2 °F 68.0 °F 78% 30.04 in - SE 23.0 mph - N/A   Unknown
4:00 PM 75.2 °F 66.2 °F 73% 30.04 in - SE 24.2 mph - N/A   Unknown
4:30 PM 75.2 °F 66.2 °F 73% 30.04 in - SE 21.9 mph - N/A   Unknown
5:00 PM 73.4 °F 66.2 °F 78% 30.06 in - SE 19.6 mph - N/A   Unknown
5:30 PM 73.4 °F 66.2 °F 78% 30.06 in - SE 19.6 mph - N/A   Unknown
6:00 PM 73 °F 66 °F 72% 30.07 in - SE 20.7 mph - -  
6:00 PM 73.4 °F 66.2 °F 78% 30.06 in - SE 20.7 mph - N/A   Unknown
6:30 PM 73.4 °F 64.4 °F 73% 30.06 in - SE 21.9 mph - N/A   Unknown
7:00 PM 73.4 °F 62.6 °F 69% 30.06 in - SE 23.0 mph - N/A   Unknown
7:30 PM 73.4 °F 62.6 °F 69% 30.09 in - SE 21.9 mph - N/A   Unknown
8:00 PM 73.4 °F 64.4 °F 73% 30.09 in - SE 20.7 mph - N/A   Unknown
8:30 PM 73.4 °F 62.6 °F 69% 30.09 in - ESE 19.6 mph - N/A   Unknown
9:00 PM 73 °F 64 °F 66% 30.12 in - SE 20.7 mph - -  
9:00 PM 73.4 °F 64.4 °F 73% 30.12 in - SE 20.7 mph - N/A   Unknown
9:30 PM 73.4 °F 60.8 °F 65% 30.09 in - ESE 20.7 mph - N/A   Unknown
10:00 PM 73.4 °F 62.6 °F 69% 30.09 in - ESE 20.7 mph - N/A   Unknown
10:30 PM 73.4 °F 60.8 °F 65% 30.09 in - ESE 20.7 mph - N/A   Unknown
11:00 PM 73.4 °F 60.8 °F 65% 30.09 in - ESE 20.7 mph - N/A   Unknown
11:30 PM 73.4 °F 60.8 °F 65% 30.09 in - ESE 17.3 mph - N/A   Unknown